STARLINK-1172, 45074

Orbit data source: Space-Track

STARLINK-1172, 45074 is a payload satellite owned by SpaceX/Seattle (US) in LEO that was launched on Wed, 29 Jan 2020 UTC via an FALCON 9 launch vehicle from the Air Force Eastern Test Range (AFETR). Payload-class satellites include a variety of spacecraft equipped with specific instruments for various scientific and technological missions. These include communications satellites like Starlink; space stations such as the ISS; scientific satellites like the Hubble; Earth observation satellites from companies like Planet Labs, Umbra, and HawkEye 360; GPS; miniature CubeSats for education and research; and military/defense satellites.

Loading next visibility...
Identifier
45074, 2020-006AG
Orbit
LEO
Country
Flag of USUS
Related business
Manufacturer
SpaceX/Seattle
Mission
Operational Commercial Communications
Bus & Motor
STARLINK, Unknown motor
Mass
260 kg wet, ~248 kg dry
Launch date (UTC)
2020-01-29 (6 years ago)
Launch vehicle
FALCON 9
Launch site
Air Force Eastern Test Range (AFETR)
Object type
Payload
Rocket body
Debris
Shape & HBR
Box + 1 Pan, 10.1 m
Radar Cross Section
13.562 m², Large (>1 m²)

Expand to show TLE details & history
Last TLE update: 21 hours ago

TLE from 21 hours ago
0 STARLINK-1172
1 45074U 20006AG  25308.14342931  .00000512  00000-0  53288-4 0  9991
2 45074  53.0527 110.2182 0001237  85.2117 274.9013 15.06394167317814
Epoch: 2025-11-04T03:26Z
TLE epoch observation values (Epoch: 2025-11-04T03:26:32.292Z)
Latitude
-0.00003°
Longitude
14.94894°
Altitude
548.035 km
Speed
7.589 km/s
True Right ascension
07h 20m 52s
True Declination
0° 00' 00"
Sunlit
Object was in daylight at epoch
Visualization orbit readout
Latitude
Unknown
Longitude
Unknown
Altitude
Unknown
Speed
Unknown
Apparent Right ascension
Unknown
Apparent Declination
Unknown
Sunlit
N/A
Visualization observer readout
Local Sidereal Time
20:37:46
Azimuth
Unknown
Elevation
Unknown
Doppler factor
Unknown
Orbital elements
Apogee altitude
548.357 km
Perigee altitude
546.644 km
Semi-major axis
6,925.637 km
Eccentricity
0.00012
Inclination
53.0527°
RAAN
110.2182°
Arg. of periapsis
85.2117°
True anomaly
274.88718°
Mean anomaly
274.9013°
Eccentric anomaly
274.89424°
Mean motion
3.76577 °/min
Orbital period
95.6 mins
BSTAR
0.000053288
Loading maneuver chart data...
Computing Atmospheric mass density...
Loading historical data...
Loading historical data...
Loading historical data...
Loading historical data...
Loading historical data...
Loading historical data...
Loading historical data...

Documentation

Showing up to 5 results
|